Wind_Speed
24 25 27 27 26 25 24 25 23 19 20 22 21 20 21 20 21 19 21 28 27 24 26 24 24 27 26 23 25 31 33 30 29 29 30 30 30 31 30 30 29 28 26 24 23 22 20 17 16 17 19 19 19 18 17 15 13 12 11 11 11 11 11 11 11 11 10 10 11 10 10 10 10 10 10 10 10 10 10 10 10 10 11 11 12 12
25 28 30 26 24 23 23 25 23 22 23 23 22 21 20 21 23 21 25 31 28 26 28 26 27 30 32 29 26 32 36 34 31 30 31 31 31 30 30 30 29 27 25 24 23 21 20 18 17 17 19 20 20 19 18 15 13 12 11 11 11 11 10 10 10 10 10 10 10 10 10 11 11 11 11 10 10 10 10 10 10 10 10 9 10 10
27 31 29 24 25 26 25 25 24 24 24 22 23 22 20 22 23 22 26 30 26 25 26 25 30 33 34 32 31 34 37 35 34 33 32 33 32 31 29 29 28 27 25 24 22 21 20 19 18 18 19 19 20 19 18 15 13 12 11 11 10 10 10 10 10 10 10 11 11 11 11 12 11 11 11 11 11 11 10 10 10 9 9 8 8 8
28 29 27 24 25 26 24 24 24 25 25 25 24 22 22 24 22 19 21 24 24 24 25 26 33 38 38 38 35 36 39 38 36 34 35 36 35 33 31 29 27 26 25 24 22 21 21 19 18 18 18 18 19 18 17 14 13 12 11 10 10 10 10 10 10 10 11 11 12 12 12 12 12 12 12 12 11 11 11 10 9 9 8 9 9 8
30 29 29 26 24 23 22 22 23 23 24 25 26 25 25 24 21 19 19 24 28 28 29 30 32 37 40 37 31 30 32 30 28 29 32 36 37 35 32 30 27 26 25 24 23 23 21 20 18 18 17 17 17 17 16 14 13 12 11 10 10 10 10 10 10 11 11 12 12 13 13 13 13 13 13 12 12 12 12 12 11 11 11 12 12 12
31 32 34 32 30 29 26 27 26 24 22 22 23 26 25 22 20 18 18 24 26 23 24 22 18 21 22 18 19 22 22 18 18 22 26 29 33 34 33 31 29 27 25 25 24 23 22 20 19 18 17 17 17 17 15 15 14 13 11 11 11 10 10 11 11 12 12 13 13 14 14 15 15 15 15 14 14 14 15 14 14 14 15 15 16 16
34 35 35 34 33 31 30 31 30 29 25 20 19 24 25 22 21 21 21 22 18 14 15 13 10 13 18 17 17 21 23 23 25 26 27 26 25 28 31 30 28 27 27 25 24 24 22 20 18 17 17 17 17 16 16 15 14 13 11 11 10 10 11 12 13 13 13 14 14 15 15 16 16 16 17 17 17 17 17 17 17 17 18 18 18 18
35 35 34 33 32 31 32 31 31 31 26 21 22 26 26 22 21 21 21 20 18 17 18 19 17 19 27 30 27 27 29 31 32 29 28 26 22 22 25 26 26 26 26 25 24 24 22 20 18 17 17 17 17 16 16 15 14 12 11 10 11 11 12 13 13 14 14 15 15 16 17 17 18 18 18 19 19 19 19 19 20 20 20 21 21 21
34 32 31 30 27 27 30 30 29 29 25 23 25 27 25 23 21 20 19 18 17 17 18 19 18 16 22 25 20 24 30 31 30 26 25 24 21 19 20 22 23 23 23 23 23 23 21 20 18 18 17 17 16 16 15 15 14 13 11 11 11 12 13 13 14 15 16 16 17 17 18 18 19 20 20 21 21 21 22 22 22 23 23 23 23 23
33 34 31 28 26 27 28 28 28 25 24 24 24 25 25 23 22 20 18 16 13 15 18 17 16 14 18 19 14 18 26 27 26 24 22 23 21 18 17 18 20 20 21 22 22 21 20 19 18 17 17 16 16 15 15 15 14 13 12 11 11 12 13 14 15 16 17 18 18 19 19 20 21 22 22 23 23 24 24 25 25 25 25 25 25 25
38 36 33 31 30 30 31 30 28 25 24 24 23 22 21 20 20 18 14 11 9 15 19 18 21 19 13 12 12 18 21 21 20 21 20 22 24 21 19 19 20 20 20 20 20 20 19 18 17 15 15 15 15 15 15 15 14 13 12 11 11 12 13 14 15 17 18 18 19 20 21 22 23 23 24 25 25 26 26 26 27 27 27 27 27 28
41 39 38 38 37 34 33 31 29 28 25 23 22 18 13 11 12 11 10 9 8 11 12 13 22 24 17 9 7 12 16 15 17 18 17 21 25 25 22 21 21 20 20 19 19 19 17 16 14 13 14 14 14 15 15 15 14 13 12 12 12 12 13 15 16 17 18 19 20 22 23 24 25 25 26 26 26 27 27 28 28 29 29 30 30 31
40 41 39 39 38 37 34 31 30 30 27 25 21 14 9 6 6 7 7 7 10 10 7 9 16 21 26 24 16 13 16 16 16 17 18 20 23 25 24 22 21 19 18 18 17 16 15 13 13 13 14 14 14 14 15 15 14 13 13 13 13 13 14 15 16 18 19 21 22 24 25 26 26 27 27 27 28 29 30 30 31 32 32 33 34 35
27 31 35 36 37 36 35 34 32 31 28 28 25 19 14 8 5 8 8 8 12 11 10 12 13 14 20 24 24 23 24 21 17 18 19 19 20 21 20 19 18 17 16 16 15 15 15 15 15 15 15 15 15 15 15 15 14 14 14 14 14 14 15 16 18 20 21 23 24 25 26 26 27 28 28 29 30 31 32 33 34 34 35 35 36 37
16 15 21 26 28 28 30 32 31 29 27 28 27 22 19 14 9 8 7 7 6 4 6 11 10 8 8 10 14 17 20 22 20 19 18 18 17 17 17 18 17 16 16 15 15 16 17 17 17 17 17 16 16 16 16 15 15 15 15 15 15 15 16 18 19 21 23 24 26 26 27 28 29 30 31 32 33 34 35 36 36 37 37 36 37 37
19 17 19 21 21 18 18 20 25 27 24 24 23 22 23 23 19 14 11 9 7 6 5 11 11 12 11 11 10 7 11 18 22 22 20 18 18 17 17 17 16 15 16 15 16 17 18 19 19 18 18 17 17 17 16 16 15 15 15 15 15 16 17 19 21 24 25 26 28 29 30 31 32 33 34 35 36 36 37 37 38 37 37 37 37 38
16 17 23 25 24 21 19 18 23 25 20 17 20 26 30 29 24 17 13 14 12 11 10 13 15 20 20 22 21 15 14 16 20 22 22 21 21 20 19 17 15 16 16 17 17 19 20 20 19 18 17 16 16 16 15 16 16 15 15 16 17 18 20 22 24 26 28 29 30 32 33 34 34 35 36 36 37 38 38 38 38 38 38 38 39 40
18 12 17 21 22 23 23 21 23 27 25 20 21 26 29 27 25 18 9 8 9 10 11 13 16 18 17 17 20 21 20 18 20 21 23 25 24 23 21 18 17 17 18 19 19 20 21 21 20 19 18 17 16 17 17 17 18 18 18 19 20 22 24 25 27 28 29 31 32 34 35 35 36 36 37 37 38 38 39 39 39 39 39 40 41 42
26 19 16 20 22 21 21 21 23 26 28 28 26 24 21 17 17 18 11 7 8 9 9 12 17 20 21 19 17 21 23 22 22 22 24 26 26 26 23 20 20 20 21 21 21 22 22 22 22 21 20 19 18 19 20 20 21 21 22 22 23 25 26 27 29 30 31 33 34 35 36 36 37 37 38 38 39 39 40 40 40 41 41 42 43 44
31 22 14 18 22 22 23 26 27 27 30 33 32 27 23 17 12 16 17 11 8 9 9 10 12 15 21 24 22 24 23 22 22 22 24 27 27 26 23 21 21 21 21 21 21 22 23 24 24 22 21 21 20 21 22 22 23 23 24 25 26 27 28 29 31 33 33 34 35 36 37 37 38 38 38 39 39 40 41 41 42 43 43 44 45 46
33 27 19 16 19 23 26 29 31 32 33 35 36 32 29 28 20 15 19 20 14 8 6 8 9 10 12 16 19 22 19 18 19 19 22 25 25 24 22 20 21 20 20 21 21 22 24 24 23 22 22 22 22 23 24 25 25 25 26 28 29 29 30 31 33 34 35 35 36 37 38 38 38 38 39 39 40 41 41 43 43 44 45 46 47 47
34 34 29 23 24 28 32 34 33 33 35 35 37 38 36 37 31 17 14 22 24 17 11 8 9 12 10 7 11 17 16 15 16 17 21 23 23 23 22 21 21 20 20 21 22 23 24 24 23 22 23 23 25 26 26 26 27 28 29 30 30 31 31 33 34 35 36 36 37 38 38 39 39 39 39 40 41 41 42 43 44 45 46 47 47 46
34 37 35 32 34 35 35 38 35 34 36 35 35 38 37 38 40 28 12 12 21 27 26 16 11 17 18 12 10 15 16 15 15 17 22 24 23 23 23 23 23 22 21 22 24 25 25 25 24 23 24 25 27 28 28 29 30 31 32 32 32 32 32 33 35 36 37 38 39 39 39 39 39 39 40 40 41 42 43 44 45 46 47 47 47 45
33 36 33 27 27 28 30 36 35 32 33 35 37 39 38 40 42 37 26 16 14 21 22 13 11 16 18 16 15 15 16 16 17 19 23 25 25 24 25 26 25 23 23 24 25 26 26 26 25 25 27 28 29 30 30 32 33 33 33 32 31 32 33 35 36 37 39 39 40 40 39 39 39 40 40 41 42 42 43 44 45 46 47 46 46 45
34 36 29 16 11 13 17 21 27 31 34 37 41 41 41 43 38 36 38 29 22 25 21 11 13 16 13 14 17 17 18 19 19 21 23 24 26 26 26 26 25 24 24 25 25 25 25 26 27 28 29 30 32 32 33 34 34 33 32 31 32 33 35 37 38 39 40 41 41 40 40 40 40 40 41 41 42 43 44 45 45 46 46 45 45 44
39 41 35 23 14 12 12 13 22 34 39 42 45 43 44 45 41 40 39 30 27 31 27 23 24 21 14 14 17 17 19 21 22 24 24 24 25 26 25 25 25 25 25 25 25 25 25 27 29 30 32 33 33 34 34 34 33 32 33 33 34 35 37 38 40 41 42 42 42 41 40 40 41 41 42 42 43 44 44 45 45 45 45 44 43 43
43 42 43 42 36 32 29 26 26 31 35 39 44 46 48 47 46 44 39 35 32 26 29 40 38 27 22 20 18 18 20 21 23 25 25 27 27 27 25 25 26 25 24 25 25 25 26 28 30 33 34 35 35 34 34 33 33 33 34 35 35 36 38 39 41 43 43 43 42 41 41 41 41 42 42 43 43 44 44 45 45 45 44 44 43 43
44 41 45 49 49 49 46 40 36 33 32 34 36 41 46 47 48 48 46 48 42 24 27 42 40 35 39 35 26 23 21 22 23 25 26 28 28 26 24 25 26 26 26 25 25 26 29 31 33 34 35 35 35 35 35 35 35 36 36 36 36 37 39 41 43 44 44 44 43 42 42 42 42 42 42 43 44 44 45 45 45 45 44 43 42 42
46 45 48 46 46 52 51 47 47 42 36 33 31 33 38 41 46 51 54 56 48 37 38 40 34 37 44 42 37 31 25 25 27 27 28 28 28 27 26 27 29 29 27 26 27 29 31 33 34 34 35 35 35 36 37 37 37 37 37 36 37 39 41 42 44 45 45 44 43 42 42 42 43 43 43 44 44 45 45 45 45 45 43 42 41 40
48 50 52 46 46 53 51 49 51 47 40 36 33 34 37 39 43 47 50 52 50 51 53 47 37 35 33 32 35 31 28 31 31 30 30 30 30 31 30 29 30 30 29 30 32 32 32 33 34 34 35 36 37 38 38 38 37 37 37 37 37 40 41 43 45 45 44 44 43 43 43 43 44 44 45 45 45 45 45 45 45 44 42 40 39 39
49 49 49 44 43 50 51 48 47 47 45 42 39 40 41 39 39 41 44 46 49 54 57 51 45 43 35 29 30 29 30 33 32 32 32 32 32 32 31 31 32 32 34 36 34 31 30 32 33 35 37 38 38 38 38 37 37 37 37 38 38 40 42 44 45 44 44 44 44 44 45 45 46 46 46 46 45 45 45 44 43 42 40 38 38 38
51 49 47 39 35 46 52 44 41 46 44 41 47 52 49 42 39 41 44 45 47 51 52 49 51 54 49 42 38 35 33 33 35 36 35 34 34 34 34 35 35 35 36 34 30 29 30 33 35 36 38 37 37 38 38 38 38 38 38 38 39 41 43 44 44 44 45 45 45 46 47 47 48 48 47 45 44 44 43 42 41 39 38 38 38 37
55 52 51 41 31 41 48 38 38 39 26 29 53 63 55 48 44 43 45 46 47 47 46 48 53 54 50 45 42 40 40 40 40 39 36 35 35 35 36 36 34 35 33 29 27 29 31 34 34 35 35 35 36 37 37 37 38 38 38 39 40 42 43 44 45 46 47 47 47 48 48 48 49 48 46 45 43 43 42 40 39 38 38 38 37 36
52 51 53 46 32 34 39 32 28 23 15 30 56 59 49 48 49 48 51 52 49 47 47 49 49 45 43 43 42 42 42 40 37 34 33 33 34 34 34 34 34 33 29 26 28 30 31 33 33 33 34 34 35 36 37 38 38 39 39 40 41 43 44 45 46 47 47 48 48 49 49 49 49 48 45 43 42 41 39 38 38 38 38 37 36 36
45 46 50 46 34 28 28 23 14 12 25 44 52 47 43 42 40 42 46 48 48 48 50 49 46 44 44 45 43 41 39 35 32 32 33 33 34 34 34 34 33 30 28 28 30 31 31 32 32 33 33 33 34 35 37 38 38 39 39 40 41 43 44 45 46 46 47 47 47 48 48 48 47 45 44 42 40 38 38 38 39 38 37 36 36 36
43 44 46 44 36 24 18 18 13 13 27 39 41 43 42 32 25 28 33 38 43 45 47 47 45 44 43 42 41 39 36 34 32 32 33 33 33 34 34 34 30 28 29 30 30 31 31 32 32 32 33 34 35 36 37 37 38 38 38 39 39 40 41 42 43 43 43 43 44 44 44 44 43 42 41 39 39 39 39 39 38 37 36 36 36 36
42 41 42 40 36 27 19 21 23 20 21 30 36 36 33 26 24 26 28 32 34 33 34 35 33 32 33 34 35 32 30 31 32 34 33 32 32 33 33 31 28 28 30 30 30 32 32 32 34 35 35 36 36 37 37 37 37 36 35 35 36 36 37 38 38 39 39 41 41 41 41 40 40 39 39 39 39 39 38 37 36 36 36 36 36 36
43 42 42 37 33 31 23 15 15 13 15 29 37 30 23 22 20 18 19 25 25 20 20 21 21 21 24 25 26 26 26 30 34 35 33 31 32 32 31 29 28 29 30 30 31 32 33 34 36 37 37 38 37 37 36 34 33 32 32 33 33 34 35 36 36 37 38 38 38 37 37 37 37 38 38 38 38 37 36 35 36 36 37 37 37 37
43 42 43 36 27 29 27 14 8 10 15 26 30 23 17 18 16 12 14 22 26 20 16 17 19 20 21 23 24 25 27 32 34 34 31 29 29 29 27 27 28 28 29 30 31 32 34 36 37 38 37 36 35 34 32 31 30 31 31 32 33 34 36 36 36 36 35 34 33 33 33 34 35 36 36 35 34 33 34 36 36 37 37 37 37 37
39 38 39 36 29 28 28 19 14 18 22 23 19 13 11 13 13 10 8 15 23 19 14 17 21 21 22 23 24 26 29 31 31 30 28 26 25 25 26 27 27 28 30 31 32 33 35 35 35 35 34 32 32 31 30 30 31 32 33 34 35 36 36 35 34 33 32 31 30 30 31 32 33 33 33 32 32 33 35 36 37 37 38 38 38 38
36 36 36 37 33 28 25 20 18 21 25 25 19 13 10 11 12 13 13 16 20 19 19 21 21 21 22 22 23 25 25 25 26 27 26 26 25 25 25 26 27 28 28 29 30 31 32 32 32 31 31 31 31 31 31 32 33 34 35 35 36 36 34 32 31 31 30 30 30 30 31 31 31 32 32 32 33 34 36 36 37 38 38 39 39 39
35 31 29 33 33 28 24 19 14 17 26 27 21 17 16 15 16 19 22 23 24 25 25 22 19 19 20 19 20 21 21 23 26 26 26 25 25 24 23 24 25 26 27 28 29 29 30 30 30 30 30 31 31 32 33 34 35 35 35 36 35 33 31 30 30 30 30 30 30 30 31 31 32 32 32 33 34 35 36 37 37 38 39 40 40 40
33 27 23 28 31 25 20 14 7 12 24 25 18 19 22 20 19 22 24 23 24 24 23 20 18 18 18 19 20 21 23 24 24 24 24 23 23 22 23 23 24 25 26 27 28 28 29 29 30 31 32 32 33 33 34 35 35 35 35 34 32 29 29 29 29 29 30 30 31 31 32 32 33 33 33 33 34 35 36 37 38 39 39 40 40 41
25 25 22 26 26 19 16 17 15 16 21 20 18 20 21 20 21 22 22 21 21 21 21 21 21 21 21 22 23 24 25 23 21 22 22 21 21 22 23 24 25 26 26 27 28 29 30 31 31 32 33 34 34 34 34 35 35 34 33 30 28 28 28 29 29 29 30 31 32 32 33 33 33 33 33 33 34 35 36 37 37 38 39 40 41 42
20 22 21 23 24 21 20 23 25 25 25 24 24 22 19 19 21 22 21 22 22 22 23 24 24 24 23 23 23 23 22 20 19 20 20 20 22 23 24 25 26 26 27 28 29 30 31 32 33 33 33 34 33 33 34 33 32 31 29 26 26 27 28 28 29 30 31 32 33 33 33 33 33 33 33 34 35 35 36 36 37 38 39 40 41 42
20 22 22 22 24 25 25 28 29 29 29 28 26 23 20 21 23 23 23 24 24 25 25 25 24 23 22 21 20 18 17 16 17 19 20 22 23 23 24 25 25 26 27 29 30 31 32 32 32 33 33 32 32 32 31 29 29 28 26 25 26 27 28 29 30 31 32 33 33 33 33 33 33 33 34 34 35 36 36 37 37 38 39 40 40 41
22 23 23 24 25 23 23 27 29 29 29 29 27 25 24 24 24 24 24 24 24 24 24 24 23 22 20 19 17 15 15 16 18 20 21 22 23 23 24 25 25 27 28 29 30 31 31 32 32 31 31 30 29 28 27 27 27 26 25 26 27 28 28 30 31 31 32 33 33 34 34 34 34 34 35 35 36 36 37 38 38 39 40 40 41 42
24 24 26 28 29 28 26 28 28 26 26 26 26 25 26 25 25 25 25 24 24 24 23 23 23 23 21 18 16 15 16 18 19 21 22 23 24 25 25 26 27 28 28 29 30 31 31 31 31 30 30 29 27 26 27 28 28 27 27 28 29 29 30 31 32 33 33 34 35 35 35 35 36 36 37 37 37 38 38 39 40 41 42 43 44 44
25 26 28 29 30 31 32 32 31 28 27 26 25 24 24 25 25 25 25 25 25 24 24 24 22 21 20 19 18 19 20 20 21 22 23 24 25 26 27 27 28 28 29 30 30 30 31 31 30 29 29 28 27 27 28 29 29 29 29 30 31 32 32 33 33 34 35 36 37 37 37 37 38 39 39 39 40 40 40 41 42 43 45 46 47 47
30 31 32 31 31 32 33 32 30 29 28 26 24 22 21 22 23 23 23 23 23 23 22 21 20 21 21 20 20 21 22 23 24 24 26 27 27 27 28 29 29 30 31 31 31 32 32 31 30 29 28 28 28 29 29 30 30 31 31 33 34 34 35 35 35 36 37 38 38 39 39 40 40 41 41 42 42 43 44 44 44 46 48 49 50 50
34 34 33 31 30 30 30 28 26 24 24 23 22 21 20 20 20 20 20 20 20 20 20 20 21 22 22 22 23 25 25 26 26 27 28 29 29 29 30 30 31 32 33 33 33 33 32 31 30 29 29 29 30 31 32 32 33 33 34 35 36 37 37 38 39 39 40 40 40 41 41 41 42 43 44 44 45 46 47 48 48 49 50 52 53 53
Wind_Direction
256 259 258 256 260 266 270 271 271 265 260 264 269 268 267 265 266 269 267 269 275 278 277 275 271 272 269 264 270 275 275 271 268 269 269 267 265 262 261 261 263 264 265 264 263 261 256 252 252 248 244 245 251 261 272 277 275 269 266 264 263 262 260 259 258 261 266 271 274 274 274 272 273 276 277 280 282 283 285 288 289 291 293 294 295 295
258 256 256 260 264 261 262 269 271 266 265 268 267 266 266 265 267 268 268 274 280 278 276 276 273 273 273 271 268 269 272 274 273 271 270 268 265 264 263 262 261 261 260 259 257 254 249 248 250 249 246 247 251 258 266 269 267 262 260 260 262 263 261 257 256 261 265 267 269 267 265 266 268 269 271 273 276 279 282 286 289 291 291 291 290 289
257 256 258 262 264 262 263 267 269 267 266 265 263 262 261 263 268 269 273 280 283 279 278 277 276 275 275 273 270 269 272 274 273 272 270 269 266 264 263 262 260 257 254 253 251 246 243 245 249 248 247 248 251 257 262 263 258 254 254 257 261 264 262 260 259 263 265 264 263 261 260 262 265 267 270 273 276 280 282 284 287 286 285 284 281 279
254 259 262 260 261 267 268 265 262 263 262 260 259 256 257 263 267 269 276 283 281 278 278 280 281 279 276 275 274 273 273 273 272 271 268 266 265 262 260 260 258 254 250 247 244 239 240 244 246 246 246 248 253 259 261 259 255 251 251 253 255 256 259 259 259 261 264 262 261 261 261 262 265 268 270 274 278 279 281 282 280 276 273 272 270 265
255 260 262 261 261 263 263 261 258 258 260 261 259 256 258 263 265 270 274 276 278 282 282 283 284 282 281 282 278 275 275 275 273 269 265 263 262 260 258 256 253 251 248 244 239 236 237 241 242 242 244 249 255 258 257 253 250 248 245 246 246 246 251 253 253 256 258 258 260 260 263 265 267 269 270 272 274 274 275 275 273 271 269 269 268 264
254 255 258 259 260 259 260 262 262 260 259 262 265 266 267 266 263 265 270 274 281 286 285 285 285 284 285 280 274 276 276 274 272 272 272 269 263 258 254 251 249 247 244 240 236 235 237 239 239 239 245 251 253 252 251 247 244 242 242 243 243 243 246 248 249 251 253 256 258 261 263 266 268 270 272 272 272 272 272 272 272 272 271 270 269 267
251 252 256 258 259 261 261 261 263 263 259 257 261 267 271 270 264 261 264 272 277 277 278 272 265 279 280 268 266 272 270 269 272 276 277 276 269 258 250 246 245 241 238 236 234 236 239 238 237 241 247 250 249 246 244 240 237 238 241 244 244 244 246 249 249 251 253 256 260 263 266 268 271 272 274 275 273 272 272 272 272 272 272 271 269 267
253 254 257 259 260 261 260 260 263 263 259 254 257 264 269 270 267 266 267 267 266 268 270 264 263 274 274 271 268 266 268 273 276 275 270 270 268 256 244 238 237 234 233 233 233 237 240 239 240 245 248 246 244 241 237 233 232 236 241 244 244 245 247 249 251 253 255 259 262 266 269 271 274 275 275 276 275 273 273 272 272 271 270 269 268 267
258 258 258 260 259 259 260 261 263 264 261 257 259 263 266 268 268 269 268 264 266 270 264 255 255 263 271 272 269 267 271 275 279 276 265 259 257 248 237 230 229 228 229 231 234 237 237 239 244 246 245 243 239 235 231 228 229 232 235 238 242 243 247 251 255 258 260 263 266 269 271 273 274 276 276 276 275 274 273 272 271 270 269 268 268 268
255 257 258 258 255 255 258 259 260 263 261 259 260 261 263 268 269 269 267 263 264 260 251 239 228 239 273 273 245 256 275 279 279 276 262 247 241 235 228 224 224 225 228 231 232 234 237 242 244 242 240 238 234 231 228 227 228 229 230 234 239 241 246 252 255 260 263 266 269 271 272 272 273 274 275 276 275 274 273 272 271 270 269 269 270 271
250 254 256 255 254 254 257 259 260 259 257 256 258 260 264 269 269 268 261 254 260 257 251 239 219 222 270 281 228 238 272 285 276 267 255 237 230 232 233 229 230 231 232 233 234 238 243 244 241 239 238 235 232 230 229 229 228 228 230 231 236 240 245 251 256 261 265 269 272 273 274 273 273 274 276 276 275 274 273 272 272 271 271 272 274 275
250 250 251 254 255 255 257 259 259 258 257 255 253 252 258 265 267 265 242 224 245 260 256 236 218 218 234 249 216 232 264 278 266 255 245 232 228 233 238 237 237 239 239 239 242 245 245 242 240 242 241 238 236 234 232 230 229 229 232 234 238 242 246 252 258 263 268 272 274 275 275 275 275 276 276 275 274 273 273 273 273 274 274 275 276 277
254 253 252 254 255 256 255 254 255 255 252 248 240 224 221 239 247 242 217 212 236 246 246 213 202 217 235 243 244 245 257 266 261 251 239 231 230 232 235 237 239 241 242 243 246 245 238 236 243 247 248 247 245 242 237 233 231 233 236 240 242 247 251 257 262 267 271 274 274 275 274 275 276 276 275 275 274 274 274 274 275 276 276 277 278 280
253 259 256 254 254 254 251 247 248 251 247 243 231 208 203 220 246 248 241 243 243 238 235 211 201 228 247 253 259 256 253 253 250 245 237 233 232 231 230 230 231 233 236 240 240 235 232 237 246 250 252 252 248 245 240 235 235 237 241 245 249 253 256 260 264 267 270 271 272 273 273 274 275 276 277 277 276 276 276 276 277 277 278 279 281 283
236 257 257 254 252 251 250 248 247 248 250 250 240 221 216 220 230 253 253 251 258 258 221 194 194 229 234 247 265 262 251 242 233 233 234 230 223 219 219 218 220 226 230 234 232 230 234 241 248 252 251 250 247 243 240 238 239 241 244 248 252 256 260 263 267 269 271 273 274 275 276 278 279 279 279 279 278 278 278 278 278 279 280 282 284 287
233 247 254 254 253 246 245 245 238 236 245 250 238 222 224 227 232 251 270 271 294 321 237 194 207 235 231 244 258 253 248 233 220 225 229 222 217 217 218 216 219 227 229 232 234 236 243 246 248 249 246 244 241 238 238 239 241 243 246 253 259 265 270 274 276 277 278 279 279 280 280 281 281 280 279 278 278 278 278 279 279 280 283 285 288 292
232 246 251 250 252 247 242 240 233 229 230 231 223 222 229 229 226 242 272 271 272 289 258 216 230 247 250 259 254 241 248 231 209 215 220 219 225 225 219 221 229 232 230 234 240 244 248 251 251 249 245 243 240 241 244 244 246 249 255 262 268 273 277 279 279 279 279 279 279 279 279 278 278 277 277 277 277 277 279 280 281 283 286 289 293 297
239 247 251 248 249 248 244 243 237 229 225 220 221 229 235 234 228 231 263 271 252 267 258 226 232 242 241 252 249 236 236 227 211 211 215 220 226 222 220 230 235 229 229 237 242 246 249 252 254 253 250 250 249 249 250 250 253 257 262 268 272 275 278 278 278 278 277 277 276 276 276 276 276 276 276 277 278 280 281 282 284 286 289 293 297 300
243 247 251 245 243 244 242 238 231 227 227 227 230 230 226 225 224 220 227 260 249 251 268 248 239 238 230 231 242 240 234 230 225 221 220 222 219 217 223 231 226 222 230 237 242 246 249 250 253 253 252 252 252 252 252 253 257 260 264 269 273 276 278 278 278 276 275 275 274 275 275 276 276 277 277 279 281 282 283 284 286 289 292 296 299 302
240 241 249 243 240 241 235 227 225 229 229 225 226 227 222 219 218 213 216 233 250 249 266 262 244 239 234 230 240 253 249 238 232 227 223 219 216 219 226 225 220 224 232 237 243 247 247 248 251 251 251 251 251 251 252 254 257 261 266 272 275 277 277 277 275 273 273 273 274 274 275 276 277 278 280 281 283 284 285 287 289 292 295 299 301 303
235 236 244 239 229 226 226 230 236 240 237 229 224 222 221 220 217 223 230 227 232 252 266 262 259 256 242 227 234 250 251 236 230 225 218 216 218 223 224 221 222 227 233 239 244 246 246 249 250 250 249 250 250 251 252 255 260 266 271 275 277 276 275 273 272 271 272 273 274 274 275 276 277 279 281 283 284 285 287 289 291 294 297 300 302 303
233 233 238 234 228 228 235 246 250 244 241 241 237 232 231 228 221 221 239 227 223 237 248 256 281 275 257 222 214 225 225 220 220 215 213 218 222 222 221 222 225 228 235 241 243 243 245 248 248 248 249 249 251 252 254 259 266 271 275 276 276 274 272 271 271 271 272 272 273 274 275 276 278 280 282 283 284 286 288 290 293 296 298 301 302 304
241 235 234 235 239 243 247 250 247 242 239 237 237 236 235 235 225 216 220 218 216 231 242 250 275 271 259 246 217 213 217 220 219 212 211 216 220 218 219 222 225 232 239 239 240 241 243 246 247 247 248 249 251 252 257 264 269 273 274 273 271 270 269 270 270 271 271 272 272 273 275 276 278 280 282 283 284 286 289 292 294 297 299 301 303 305
236 229 229 234 243 247 248 247 244 242 237 231 235 237 231 230 227 223 227 230 223 227 231 237 257 260 257 247 231 221 219 223 222 214 208 210 215 218 219 223 229 236 239 237 239 240 241 244 246 246 248 249 251 256 262 266 269 270 270 268 266 266 268 269 270 270 271 271 272 273 274 276 278 280 281 283 285 287 290 293 295 297 299 301 303 304
232 226 222 223 243 244 242 244 238 234 233 234 240 240 234 230 227 226 230 234 244 240 224 219 249 256 252 233 223 219 216 217 215 210 209 214 219 223 226 231 237 240 238 238 241 242 242 243 246 247 248 251 255 260 263 265 266 265 263 262 263 265 268 268 269 270 270 271 272 272 274 276 278 279 281 283 286 288 291 292 294 296 299 301 301 302
240 232 223 216 220 226 226 227 230 235 236 236 237 237 236 232 225 225 228 228 241 244 230 227 243 253 246 219 212 215 214 214 213 210 214 219 221 227 233 237 241 240 239 241 242 243 245 246 248 249 251 254 258 261 262 261 259 257 257 260 264 267 268 269 269 270 270 271 271 272 274 276 277 279 281 284 286 288 290 292 294 296 298 299 298 300
238 232 229 230 232 236 240 242 245 248 243 240 241 239 237 234 229 226 226 227 234 240 239 237 239 245 248 235 228 228 216 210 212 213 219 222 223 229 234 235 236 237 238 241 242 244 246 248 250 251 253 256 257 258 257 254 252 254 258 263 266 268 269 269 269 270 270 270 271 272 274 276 277 280 282 284 286 288 290 291 293 295 296 296 296 298
233 231 235 236 238 243 246 248 253 256 254 252 252 247 240 238 233 224 225 233 233 230 245 246 240 241 245 245 244 240 225 219 225 228 230 229 228 234 237 234 233 233 235 238 241 246 250 251 251 251 252 254 253 252 251 250 253 258 262 264 266 267 268 269 269 269 269 270 271 272 274 276 278 281 283 285 286 288 289 290 292 293 293 294 296 297
231 236 240 238 242 248 247 248 252 254 256 255 253 251 246 241 236 229 231 238 234 228 242 249 246 245 247 249 249 244 240 244 247 243 236 234 237 244 245 238 233 235 240 245 253 259 258 254 251 250 249 249 248 249 251 255 258 260 263 265 266 267 268 268 268 268 269 270 271 273 275 277 279 281 283 284 286 287 288 289 290 290 291 293 295 297
233 238 244 242 246 251 248 247 250 250 251 251 249 251 249 244 241 237 240 243 239 239 245 247 248 251 249 248 249 248 249 252 249 244 240 244 251 256 254 247 243 247 255 262 268 266 258 250 248 247 247 247 249 252 256 258 259 261 263 266 266 267 267 268 268 269 269 271 272 274 276 278 280 281 282 284 285 285 286 286 287 288 290 293 295 297
232 236 244 240 241 249 248 245 246 246 247 249 249 250 248 245 241 236 240 242 238 241 246 244 246 251 246 242 247 250 251 250 247 248 251 256 262 263 260 256 257 262 267 270 270 260 247 244 243 244 246 249 252 255 257 258 259 261 263 264 265 266 267 267 267 268 269 270 272 274 276 278 279 280 281 282 282 283 283 284 285 287 290 293 295 297
232 233 238 236 234 245 247 243 243 245 247 248 249 248 244 240 236 234 238 239 236 240 243 240 242 248 247 246 249 251 251 251 251 255 259 264 268 269 266 265 266 268 269 269 261 246 239 240 242 245 249 252 254 255 256 258 259 261 263 263 264 265 265 265 265 266 267 269 270 272 275 276 277 278 279 279 280 280 280 282 285 288 292 294 295 295
233 231 233 232 231 242 248 245 243 244 245 246 249 250 244 238 237 238 240 242 241 241 241 239 244 248 249 250 253 255 256 256 258 261 264 267 270 269 267 267 267 267 266 260 248 238 239 243 246 249 252 253 254 255 256 258 259 260 261 261 261 261 261 262 262 263 265 267 270 272 273 274 275 276 276 277 276 276 278 282 286 290 292 293 293 294
233 231 233 234 230 239 247 243 236 232 227 241 249 251 249 242 240 240 244 246 245 243 243 246 250 252 253 257 260 261 261 262 265 266 265 264 264 264 266 267 267 266 261 250 242 242 245 247 250 253 255 255 256 255 255 256 257 257 258 257 257 257 258 259 261 263 265 267 269 271 271 272 273 274 274 273 273 275 279 284 288 290 290 290 290 291
236 233 234 232 227 233 238 229 218 220 232 242 249 252 253 250 246 246 250 252 249 247 248 249 251 253 256 260 262 262 263 265 266 264 261 262 264 267 270 270 266 261 254 248 248 250 252 253 255 258 259 260 258 255 255 255 256 257 257 257 257 258 259 261 262 264 266 267 268 269 269 270 271 272 271 271 273 277 281 285 287 288 287 287 288 289
240 237 233 227 223 224 215 201 207 238 243 245 250 252 250 248 243 240 244 248 247 247 248 250 252 255 257 258 259 260 262 263 262 261 262 265 269 272 272 269 262 254 251 252 254 255 256 258 261 262 263 262 260 258 258 259 259 259 259 259 259 258 259 260 261 262 264 265 266 267 268 269 269 269 269 271 275 279 282 284 285 284 284 285 286 288
235 234 230 223 221 222 211 209 226 247 255 249 247 250 250 249 246 241 244 250 250 247 247 248 249 250 252 254 255 257 261 262 262 264 267 270 273 272 268 263 256 251 251 254 255 257 260 263 265 266 265 264 263 263 263 263 262 260 259 258 257 257 257 258 260 262 264 264 265 266 267 268 268 269 270 273 276 279 281 282 282 281 282 284 285 286
231 231 230 225 221 220 217 220 232 242 254 250 248 251 253 252 251 243 241 250 248 239 237 238 237 241 246 251 255 259 261 261 263 269 274 274 271 266 262 257 253 251 253 255 258 261 264 266 266 266 266 266 266 265 264 262 260 259 257 257 258 259 261 263 265 266 265 266 266 267 267 267 267 269 271 273 276 278 279 279 279 279 280 282 283 286
231 232 232 226 218 214 213 213 222 225 240 251 253 253 244 238 235 219 227 247 245 234 229 234 242 251 255 258 261 261 258 259 265 273 276 272 264 258 254 251 249 250 254 258 261 263 264 264 265 265 266 266 265 264 262 260 259 259 260 262 264 266 267 268 269 268 268 268 267 266 266 266 267 270 272 275 277 278 277 276 276 278 279 280 282 284
225 226 225 219 215 215 214 215 226 232 238 246 248 235 213 216 217 198 205 247 248 244 249 255 259 264 263 261 260 258 258 262 267 271 269 261 251 246 245 247 250 255 259 261 262 263 263 263 263 263 263 262 261 260 259 260 261 263 266 268 269 270 270 271 271 271 270 270 268 267 268 269 271 273 275 277 277 275 274 274 275 277 278 280 281 281
215 217 218 217 218 220 219 220 229 237 241 242 238 227 209 200 201 203 220 247 261 273 281 276 272 271 266 261 259 259 261 261 259 257 253 248 244 245 250 255 258 260 261 260 260 260 261 261 260 259 259 258 259 261 262 265 267 269 270 270 270 270 272 272 272 271 271 270 270 270 272 273 274 276 276 276 275 273 274 274 275 276 277 278 279 279
207 210 214 217 219 220 221 225 236 244 243 240 236 235 230 215 212 232 251 266 277 284 284 280 275 269 264 261 258 256 253 248 246 246 247 249 253 258 261 262 260 258 256 255 255 256 256 257 257 257 259 260 262 265 267 268 269 269 268 268 269 271 272 272 271 271 270 271 272 272 273 274 275 275 275 275 274 274 274 274 275 276 276 277 277 278
209 209 211 216 219 219 221 222 229 242 243 243 242 245 246 242 244 260 273 278 278 278 277 273 266 258 256 256 252 247 244 243 245 250 255 261 266 267 265 261 257 254 252 252 252 253 254 256 258 260 263 265 266 268 268 268 268 267 267 269 271 272 270 270 270 270 270 271 272 272 272 273 273 274 274 274 274 273 273 273 274 275 275 276 276 277
217 217 218 223 224 220 216 221 233 249 257 263 264 261 262 264 265 271 275 272 269 268 267 263 258 253 252 250 247 245 247 251 257 262 266 269 267 263 259 255 252 252 251 251 253 255 257 260 263 265 267 268 268 268 267 267 266 267 269 272 272 270 269 268 269 268 269 270 270 270 271 272 273 273 273 273 273 273 273 274 274 275 275 276 276 277
230 231 233 236 237 237 238 243 252 261 268 271 270 267 266 263 263 267 267 265 264 263 262 260 256 252 250 250 250 253 257 262 265 266 263 259 254 252 251 250 250 252 253 255 257 259 262 264 266 266 267 267 267 266 265 265 266 267 270 272 270 268 267 267 267 267 268 268 269 270 271 272 272 273 273 273 273 274 274 274 274 275 275 276 276 277
243 246 248 247 246 249 253 257 259 261 263 265 266 267 264 261 263 265 264 263 264 264 261 258 253 253 256 261 264 265 264 262 260 257 254 251 250 249 250 251 253 255 257 259 261 263 264 265 265 265 266 265 265 264 264 264 265 268 270 270 268 267 267 267 267 268 269 269 270 271 271 272 273 274 273 273 274 274 274 275 275 276 277 278 279 280
246 247 247 246 246 247 249 253 255 256 258 260 262 263 264 264 264 264 264 263 261 258 256 256 260 267 273 273 270 265 258 254 252 250 250 252 254 254 255 256 258 259 261 262 263 264 264 265 265 265 265 265 264 263 263 264 266 268 270 269 269 271 271 271 272 272 272 271 271 271 272 273 274 274 274 274 274 274 274 275 277 279 280 281 283 284
248 247 244 243 244 244 246 252 255 255 256 260 262 263 264 262 260 260 259 257 255 256 262 268 274 278 279 276 271 264 257 252 250 250 251 254 257 259 260 262 263 264 265 265 265 265 265 266 266 267 266 266 264 262 262 264 267 269 271 271 273 274 274 275 275 274 273 272 271 272 273 274 275 275 276 277 277 277 277 278 279 280 282 283 284 285
247 247 244 242 244 246 248 251 253 254 258 261 261 259 256 253 251 251 253 256 261 270 277 280 278 277 275 271 266 262 258 256 255 257 259 260 261 263 265 267 267 267 267 267 268 268 267 267 268 268 266 265 263 261 262 264 268 271 272 274 275 275 275 276 275 275 274 273 272 273 274 274 275 276 277 279 280 280 280 280 280 281 281 281 281 282
246 247 247 246 247 250 251 253 255 258 261 259 253 247 243 244 248 254 261 268 273 275 275 272 269 267 266 264 262 261 261 261 261 262 264 266 268 270 270 271 271 271 271 271 271 271 270 270 270 269 268 266 265 264 265 267 269 271 272 273 274 274 275 275 275 274 274 274 274 274 274 274 274 275 276 277 278 279 280 279 279 279 278 278 278 279
249 251 252 252 253 256 259 262 261 258 255 251 245 242 247 255 261 266 270 270 267 262 260 258 259 261 262 261 261 261 262 263 264 265 268 271 273 273 273 273 273 273 274 274 274 274 273 273 272 271 269 268 267 267 268 269 270 271 271 272 272 273 273 274 274 274 275 275 274 273 272 272 272 273 273 274 275 276 276 277 276 276 275 276 276 277
Height
3152 3151 3150 3151 3153 3153 3154 3154 3155 3156 3156 3155 3156 3155 3155 3154 3154 3154 3151 3150 3152 3152 3150 3150 3149 3148 3149 3149 3147 3144 3144 3145 3146 3146 3146 3146 3145 3146 3146 3146 3147 3147 3148 3148 3148 3148 3149 3149 3149 3150 3151 3152 3152 3152 3153 3153 3153 3153 3153 3154 3154 3154 3154 3154 3155 3155 3155 3156 3156 3156 3156 3156 3156 3157 3157 3157 3157 3157 3157 3157 3157 3157 3157 3156 3156 3156
3150 3147 3146 3150 3151 3152 3152 3152 3153 3153 3153 3153 3153 3153 3152 3152 3151 3151 3148 3147 3149 3149 3147 3147 3145 3144 3144 3145 3145 3141 3139 3141 3142 3142 3142 3142 3142 3142 3143 3143 3144 3144 3145 3145 3145 3145 3146 3147 3147 3148 3148 3149 3150 3150 3151 3151 3151 3151 3152 3152 3152 3153 3153 3153 3153 3153 3154 3154 3154 3155 3155 3155 3155 3155 3155 3155 3155 3155 3155 3155 3155 3155 3155 3154 3154 3154
3145 3142 3145 3149 3149 3149 3150 3150 3150 3150 3150 3151 3150 3150 3150 3149 3149 3149 3146 3145 3146 3145 3144 3144 3141 3139 3139 3140 3141 3138 3136 3137 3137 3138 3138 3137 3137 3138 3139 3140 3140 3140 3141 3142 3142 3143 3143 3144 3145 3146 3146 3147 3148 3148 3148 3149 3149 3149 3150 3150 3151 3151 3151 3151 3151 3152 3152 3153 3153 3153 3154 3154 3154 3154 3154 3154 3153 3153 3153 3153 3153 3153 3152 3153 3153 3153
3141 3140 3143 3146 3146 3146 3147 3147 3148 3147 3148 3148 3148 3148 3147 3147 3148 3147 3145 3143 3143 3142 3141 3141 3137 3134 3134 3134 3135 3135 3132 3132 3133 3133 3133 3132 3132 3134 3135 3136 3136 3137 3137 3138 3139 3140 3141 3142 3143 3144 3144 3145 3146 3146 3147 3147 3147 3148 3148 3149 3149 3149 3150 3150 3150 3151 3151 3151 3152 3152 3152 3152 3152 3152 3152 3152 3151 3151 3151 3151 3151 3151 3151 3151 3151 3152
3139 3139 3140 3143 3143 3144 3144 3144 3145 3145 3145 3144 3144 3145 3145 3146 3146 3146 3145 3141 3140 3140 3138 3139 3134 3129 3129 3129 3129 3130 3128 3127 3128 3128 3128 3127 3127 3129 3131 3132 3133 3133 3134 3135 3136 3137 3138 3139 3140 3141 3142 3143 3143 3144 3144 3145 3145 3146 3146 3147 3147 3148 3148 3148 3149 3149 3149 3149 3150 3150 3150 3150 3150 3150 3150 3150 3150 3149 3149 3149 3149 3149 3150 3150 3150 3151
3137 3136 3137 3139 3140 3141 3141 3141 3142 3143 3143 3142 3141 3141 3142 3144 3144 3144 3143 3140 3140 3138 3135 3137 3133 3125 3124 3126 3124 3124 3124 3124 3124 3124 3124 3123 3123 3124 3126 3128 3129 3130 3131 3132 3133 3135 3136 3137 3138 3139 3139 3140 3140 3141 3141 3142 3143 3143 3144 3145 3145 3146 3146 3147 3147 3147 3148 3148 3148 3148 3149 3149 3149 3149 3148 3148 3148 3148 3148 3148 3148 3148 3148 3148 3149 3149
3132 3132 3134 3136 3137 3138 3139 3138 3139 3140 3141 3141 3139 3139 3140 3141 3142 3142 3141 3140 3139 3137 3134 3135 3134 3126 3121 3123 3123 3121 3121 3121 3121 3121 3121 3121 3120 3120 3121 3123 3125 3127 3128 3129 3131 3132 3133 3134 3135 3136 3137 3138 3138 3139 3139 3140 3140 3141 3142 3143 3144 3144 3145 3146 3146 3146 3147 3147 3147 3147 3147 3147 3147 3148 3147 3147 3147 3147 3147 3146 3146 3146 3146 3146 3146 3146
3127 3129 3132 3133 3134 3135 3135 3135 3136 3137 3138 3138 3137 3137 3137 3138 3139 3139 3139 3138 3136 3136 3133 3131 3134 3128 3117 3116 3120 3118 3118 3117 3117 3117 3117 3118 3118 3117 3118 3120 3122 3124 3125 3127 3128 3130 3131 3132 3133 3134 3134 3135 3136 3136 3137 3138 3139 3139 3140 3141 3142 3143 3144 3145 3145 3145 3146 3146 3146 3146 3146 3146 3146 3146 3146 3146 3146 3145 3145 3145 3144 3144 3143 3143 3143 3143
3124 3127 3129 3130 3132 3131 3131 3132 3133 3134 3135 3134 3134 3135 3135 3136 3136 3136 3136 3136 3135 3134 3129 3128 3133 3128 3112 3109 3115 3114 3114 3114 3112 3113 3114 3115 3116 3115 3115 3117 3119 3121 3123 3124 3126 3127 3129 3130 3130 3131 3132 3133 3133 3134 3135 3136 3137 3138 3138 3139 3140 3141 3142 3143 3144 3144 3145 3145 3145 3145 3145 3145 3145 3145 3145 3144 3144 3144 3143 3143 3142 3141 3141 3140 3140 3140
3122 3123 3125 3127 3128 3128 3128 3129 3130 3132 3132 3131 3132 3133 3133 3134 3133 3135 3134 3134 3135 3130 3123 3124 3129 3125 3110 3106 3111 3110 3110 3111 3109 3109 3110 3111 3113 3113 3114 3116 3117 3119 3120 3122 3123 3125 3126 3127 3128 3129 3129 3130 3131 3132 3133 3134 3135 3136 3136 3137 3138 3139 3140 3142 3143 3143 3143 3143 3143 3143 3143 3143 3143 3143 3143 3142 3142 3142 3141 3140 3140 3139 3138 3138 3137 3137
3118 3120 3122 3122 3123 3124 3125 3126 3127 3129 3129 3129 3130 3130 3132 3132 3131 3132 3131 3133 3133 3122 3116 3121 3124 3124 3113 3104 3106 3107 3106 3107 3106 3106 3107 3108 3110 3110 3112 3114 3115 3116 3118 3119 3121 3122 3124 3124 3125 3126 3126 3128 3128 3130 3131 3132 3133 3134 3134 3135 3136 3137 3138 3139 3140 3141 3141 3141 3141 3141 3141 3141 3141 3141 3141 3140 3140 3139 3138 3138 3137 3136 3135 3135 3134 3134
3115 3117 3117 3117 3119 3121 3122 3123 3124 3125 3126 3127 3128 3129 3131 3130 3129 3130 3129 3132 3129 3116 3112 3116 3119 3121 3113 3102 3103 3104 3103 3104 3103 3103 3104 3105 3106 3108 3109 3111 3112 3114 3115 3117 3118 3120 3121 3122 3122 3123 3124 3125 3126 3128 3129 3130 3131 3132 3133 3133 3134 3135 3136 3137 3138 3138 3139 3139 3139 3139 3139 3139 3139 3138 3138 3138 3137 3137 3136 3135 3134 3133 3132 3132 3131 3131
3110 3111 3113 3114 3115 3117 3119 3120 3120 3121 3123 3124 3125 3128 3130 3129 3128 3127 3126 3126 3122 3113 3111 3114 3116 3115 3104 3098 3102 3102 3101 3102 3102 3101 3102 3102 3104 3105 3107 3108 3110 3112 3113 3114 3116 3117 3118 3119 3120 3121 3122 3123 3124 3125 3126 3127 3128 3129 3130 3131 3132 3132 3133 3134 3135 3135 3136 3136 3136 3136 3136 3136 3136 3136 3135 3135 3134 3134 3133 3132 3131 3130 3129 3129 3128 3128
3108 3107 3108 3110 3110 3112 3114 3115 3116 3116 3118 3119 3121 3124 3125 3126 3126 3123 3121 3119 3114 3111 3110 3112 3114 3108 3098 3096 3098 3098 3099 3100 3100 3100 3100 3101 3102 3103 3105 3107 3108 3110 3111 3112 3114 3115 3116 3117 3117 3118 3119 3121 3122 3123 3124 3125 3126 3127 3128 3129 3129 3130 3130 3131 3132 3132 3133 3133 3133 3133 3133 3133 3133 3132 3132 3132 3132 3131 3130 3129 3128 3127 3126 3125 3124 3124
3106 3104 3103 3104 3105 3107 3108 3110 3112 3113 3114 3115 3117 3120 3120 3121 3121 3118 3115 3112 3109 3108 3108 3110 3110 3101 3095 3094 3094 3094 3095 3096 3098 3098 3098 3099 3101 3102 3103 3104 3106 3107 3109 3110 3111 3112 3113 3114 3115 3116 3117 3118 3120 3121 3122 3123 3124 3125 3126 3126 3127 3127 3128 3128 3129 3129 3130 3130 3130 3130 3129 3129 3129 3129 3129 3129 3128 3128 3127 3126 3124 3123 3122 3121 3120 3120
3103 3100 3099 3101 3102 3104 3105 3107 3109 3110 3111 3111 3114 3118 3116 3116 3117 3114 3110 3109 3110 3109 3105 3105 3101 3094 3092 3092 3091 3093 3093 3094 3096 3096 3097 3098 3099 3100 3101 3102 3104 3105 3107 3108 3109 3110 3111 3112 3113 3114 3115 3116 3117 3119 3120 3121 3122 3122 3123 3123 3124 3124 3125 3125 3126 3126 3126 3127 3127 3126 3126 3126 3126 3126 3126 3125 3125 3124 3123 3122 3120 3119 3118 3117 3116 3115
3100 3097 3096 3099 3100 3101 3103 3104 3105 3107 3108 3108 3110 3111 3109 3111 3114 3113 3110 3108 3111 3108 3099 3095 3093 3090 3091 3089 3088 3092 3092 3092 3094 3094 3096 3097 3097 3099 3100 3101 3103 3104 3105 3107 3107 3108 3109 3110 3110 3111 3112 3114 3115 3116 3117 3118 3119 3119 3120 3120 3121 3122 3122 3123 3123 3123 3124 3124 3124 3124 3123 3123 3123 3122 3122 3122 3121 3120 3119 3117 3116 3115 3114 3113 3112 3111
3097 3095 3093 3096 3097 3097 3100 3101 3101 3102 3104 3104 3105 3105 3107 3110 3112 3112 3112 3108 3109 3104 3092 3088 3089 3088 3088 3084 3083 3088 3090 3090 3091 3092 3094 3095 3095 3097 3098 3099 3101 3102 3103 3104 3105 3106 3106 3107 3107 3108 3110 3111 3112 3113 3114 3115 3116 3116 3117 3118 3119 3119 3120 3120 3120 3120 3121 3121 3121 3120 3120 3119 3119 3118 3118 3118 3117 3116 3114 3113 3112 3111 3110 3109 3108 3107
3094 3093 3091 3092 3094 3095 3097 3098 3097 3098 3100 3101 3101 3101 3104 3108 3108 3110 3110 3106 3105 3100 3089 3085 3085 3082 3081 3080 3079 3083 3086 3087 3089 3090 3091 3092 3093 3095 3096 3098 3098 3100 3101 3101 3102 3103 3104 3105 3105 3106 3108 3109 3110 3111 3111 3112 3113 3114 3115 3115 3116 3116 3116 3117 3117 3117 3117 3117 3117 3116 3115 3115 3115 3114 3114 3113 3112 3111 3110 3109 3108 3106 3105 3104 3103 3102
3091 3092 3089 3088 3090 3093 3092 3092 3092 3093 3096 3097 3097 3098 3101 3103 3103 3104 3103 3101 3100 3096 3088 3084 3079 3074 3073 3076 3077 3079 3082 3085 3086 3087 3088 3090 3092 3093 3094 3096 3096 3098 3099 3099 3100 3101 3102 3102 3103 3104 3106 3106 3107 3108 3109 3110 3110 3111 3112 3112 3113 3113 3113 3113 3113 3113 3114 3113 3113 3112 3111 3111 3110 3110 3109 3109 3108 3106 3105 3104 3103 3102 3101 3100 3099 3098
3088 3089 3087 3085 3087 3087 3085 3085 3086 3088 3089 3090 3092 3094 3095 3097 3099 3100 3097 3095 3096 3092 3087 3083 3074 3069 3070 3073 3075 3076 3079 3081 3083 3084 3086 3088 3090 3091 3092 3093 3094 3096 3097 3098 3098 3099 3099 3100 3101 3102 3103 3104 3105 3105 3106 3107 3107 3108 3109 3109 3109 3109 3109 3109 3109 3109 3109 3109 3108 3108 3107 3106 3106 3106 3105 3104 3103 3102 3101 3100 3099 3098 3097 3096 3095 3094
3083 3084 3083 3082 3080 3080 3079 3080 3083 3085 3084 3084 3086 3086 3088 3091 3095 3096 3091 3089 3090 3088 3085 3082 3073 3067 3069 3071 3072 3075 3077 3078 3081 3083 3085 3087 3088 3089 3090 3091 3092 3093 3095 3095 3096 3096 3096 3097 3098 3099 3100 3101 3102 3103 3103 3104 3105 3105 3105 3106 3106 3105 3106 3105 3105 3105 3105 3104 3104 3103 3103 3102 3102 3102 3101 3100 3099 3098 3097 3096 3095 3094 3093 3092 3091 3090
3080 3080 3079 3078 3075 3075 3076 3076 3079 3080 3079 3081 3082 3082 3085 3086 3086 3088 3085 3083 3085 3083 3081 3083 3075 3064 3066 3070 3072 3074 3075 3077 3079 3081 3083 3085 3086 3087 3088 3089 3090 3091 3092 3092 3092 3093 3093 3093 3095 3096 3097 3098 3099 3099 3100 3101 3101 3102 3102 3102 3102 3102 3102 3102 3101 3101 3100 3100 3099 3099 3099 3098 3098 3098 3097 3096 3095 3094 3093 3092 3091 3090 3089 3088 3087 3086
3077 3075 3075 3075 3073 3072 3072 3072 3074 3076 3077 3077 3076 3078 3080 3079 3080 3083 3082 3081 3081 3077 3078 3082 3073 3061 3062 3067 3070 3072 3074 3075 3077 3078 3080 3083 3084 3085 3085 3086 3087 3088 3088 3089 3089 3089 3090 3090 3092 3093 3094 3095 3095 3096 3097 3097 3098 3098 3098 3099 3099 3099 3098 3097 3097 3096 3096 3096 3095 3095 3094 3094 3094 3093 3092 3092 3091 3090 3089 3087 3086 3085 3084 3084 3083 3081
3070 3069 3071 3073 3072 3070 3068 3068 3069 3070 3071 3070 3070 3072 3073 3074 3078 3079 3079 3081 3076 3070 3075 3076 3065 3059 3062 3064 3065 3069 3071 3073 3075 3076 3077 3079 3081 3082 3082 3083 3084 3085 3085 3085 3085 3086 3086 3087 3089 3090 3090 3091 3091 3093 3093 3093 3094 3094 3095 3095 3095 3095 3094 3093 3093 3092 3092 3091 3091 3091 3090 3090 3090 3089 3088 3087 3086 3085 3084 3083 3082 3081 3080 3080 3079 3078
3063 3061 3063 3065 3064 3060 3058 3058 3057 3058 3062 3063 3063 3066 3066 3069 3072 3072 3075 3077 3068 3064 3070 3067 3058 3059 3062 3061 3062 3065 3067 3070 3072 3073 3075 3076 3077 3078 3079 3080 3081 3081 3082 3082 3082 3083 3084 3084 3085 3086 3086 3087 3088 3089 3089 3089 3090 3090 3091 3092 3091 3090 3089 3089 3089 3088 3087 3087 3087 3087 3086 3086 3086 3085 3084 3083 3082 3081 3080 3079 3078 3077 3076 3076 3075 3074
3055 3053 3054 3054 3052 3050 3049 3049 3049 3051 3055 3056 3056 3059 3060 3062 3065 3068 3070 3066 3060 3063 3062 3054 3055 3060 3059 3059 3061 3062 3064 3067 3069 3071 3072 3073 3074 3075 3076 3077 3077 3078 3079 3079 3080 3080 3081 3082 3082 3082 3083 3083 3084 3085 3085 3086 3086 3087 3087 3087 3086 3086 3085 3085 3085 3084 3083 3083 3083 3082 3082 3082 3081 3080 3079 3078 3077 3076 3075 3075 3074 3073 3072 3071 3070 3069
3049 3048 3047 3047 3046 3045 3047 3048 3048 3048 3048 3050 3052 3053 3054 3056 3060 3062 3058 3053 3057 3062 3051 3044 3054 3058 3054 3056 3058 3058 3062 3064 3065 3067 3068 3069 3070 3071 3072 3073 3073 3074 3075 3076 3076 3077 3077 3078 3078 3078 3079 3080 3080 3081 3081 3082 3082 3083 3082 3082 3082 3082 3081 3081 3081 3080 3079 3079 3079 3078 3078 3077 3077 3076 3075 3074 3073 3072 3071 3070 3069 3068 3068 3067 3066 3065
3044 3042 3041 3044 3042 3041 3045 3045 3044 3045 3044 3045 3047 3047 3049 3051 3051 3050 3047 3047 3055 3054 3044 3043 3051 3051 3050 3053 3054 3056 3059 3061 3062 3063 3064 3065 3066 3067 3068 3069 3070 3071 3071 3072 3073 3073 3073 3073 3074 3074 3075 3075 3076 3076 3077 3078 3078 3078 3077 3077 3078 3078 3077 3077 3076 3076 3075 3074 3074 3074 3073 3073 3072 3071 3070 3069 3068 3068 3067 3066 3065 3064 3063 3062 3062 3061
3040 3036 3036 3041 3038 3035 3039 3041 3039 3041 3041 3040 3041 3041 3042 3042 3041 3042 3042 3045 3049 3046 3041 3045 3047 3046 3049 3050 3051 3055 3057 3056 3058 3059 3059 3061 3062 3063 3064 3065 3066 3067 3067 3068 3068 3068 3068 3069 3069 3070 3070 3071 3072 3072 3073 3073 3073 3073 3073 3073 3074 3073 3073 3073 3072 3071 3071 3070 3070 3070 3069 3068 3068 3067 3066 3065 3064 3063 3062 3061 3060 3060 3059 3058 3057 3056
3034 3031 3031 3036 3034 3030 3031 3034 3035 3035 3035 3036 3037 3036 3035 3034 3035 3038 3038 3040 3043 3038 3038 3045 3044 3041 3044 3046 3048 3052 3053 3053 3054 3054 3055 3057 3057 3058 3060 3060 3062 3062 3062 3062 3063 3063 3063 3064 3065 3065 3066 3066 3067 3068 3068 3068 3069 3069 3069 3069 3069 3069 3069 3068 3067 3067 3066 3066 3065 3065 3064 3064 3063 3062 3061 3060 3060 3058 3057 3056 3056 3055 3055 3054 3053 3052
3028 3027 3026 3030 3029 3024 3024 3029 3031 3029 3031 3033 3029 3024 3025 3027 3029 3031 3031 3033 3035 3033 3035 3041 3038 3033 3037 3043 3046 3048 3049 3050 3051 3051 3052 3052 3052 3054 3054 3055 3056 3056 3056 3057 3057 3058 3059 3059 3060 3061 3061 3062 3063 3063 3063 3064 3064 3064 3064 3065 3065 3065 3064 3063 3063 3062 3061 3061 3061 3060 3060 3059 3058 3057 3057 3056 3055 3054 3052 3052 3051 3051 3051 3050 3049 3048
3020 3020 3020 3023 3023 3019 3020 3024 3026 3027 3029 3025 3013 3009 3016 3022 3024 3025 3026 3026 3028 3030 3032 3032 3029 3028 3034 3039 3041 3043 3045 3046 3047 3048 3049 3048 3048 3049 3049 3050 3051 3050 3051 3051 3052 3053 3054 3055 3056 3056 3057 3058 3058 3058 3059 3059 3059 3060 3060 3060 3060 3060 3059 3058 3058 3057 3057 3057 3056 3056 3056 3054 3053 3053 3052 3052 3051 3049 3048 3048 3047 3047 3047 3046 3045 3044
3014 3015 3016 3018 3018 3016 3016 3019 3022 3023 3019 3008 2999 3002 3011 3015 3017 3019 3019 3020 3024 3027 3027 3026 3027 3030 3032 3033 3036 3038 3039 3041 3043 3044 3043 3043 3043 3044 3044 3045 3045 3045 3046 3046 3047 3048 3049 3050 3051 3051 3052 3052 3053 3053 3054 3054 3054 3055 3055 3055 3055 3054 3054 3053 3053 3052 3052 3052 3052 3051 3051 3050 3049 3049 3048 3047 3046 3045 3044 3044 3044 3043 3042 3041 3040 3039
3009 3010 3011 3013 3013 3012 3013 3016 3018 3012 3002 2996 2997 3002 3005 3008 3012 3015 3015 3017 3020 3022 3022 3024 3026 3028 3027 3029 3032 3034 3035 3038 3039 3039 3038 3038 3039 3039 3040 3040 3040 3041 3041 3042 3043 3043 3044 3045 3046 3046 3047 3047 3047 3048 3048 3048 3049 3049 3049 3050 3049 3049 3049 3048 3048 3048 3048 3048 3047 3046 3046 3045 3045 3045 3044 3043 3042 3041 3041 3040 3040 3039 3038 3037 3036 3035
3004 3005 3006 3007 3008 3008 3009 3009 3005 2997 2993 2995 2997 2997 2999 3004 3009 3011 3011 3011 3013 3015 3017 3019 3021 3024 3026 3026 3028 3030 3032 3033 3034 3033 3033 3034 3034 3035 3034 3034 3035 3036 3037 3038 3038 3039 3039 3040 3040 3041 3041 3041 3042 3042 3043 3043 3044 3044 3044 3045 3044 3044 3044 3043 3043 3043 3043 3043 3042 3042 3042 3041 3041 3040 3039 3039 3038 3037 3037 3036 3035 3034 3033 3032 3032 3031
2998 3000 3001 3001 3001 3002 3002 3000 2997 2995 2994 2993 2992 2993 2996 3000 3004 3006 3006 3006 3008 3011 3013 3015 3017 3020 3022 3023 3024 3027 3028 3028 3027 3027 3028 3030 3030 3030 3029 3030 3031 3032 3032 3033 3033 3034 3034 3035 3035 3035 3036 3036 3037 3037 3038 3038 3038 3038 3039 3039 3039 3039 3039 3038 3039 3039 3038 3038 3037 3038 3037 3037 3036 3036 3035 3035 3034 3033 3033 3032 3031 3030 3029 3028 3027 3026
2993 2994 2996 2996 2995 2996 2998 2997 2997 2997 2991 2986 2988 2992 2995 2998 3001 3003 3002 3002 3004 3007 3009 3011 3013 3015 3017 3019 3021 3022 3023 3022 3020 3020 3024 3026 3025 3024 3025 3026 3026 3027 3028 3028 3028 3029 3030 3030 3030 3031 3031 3031 3032 3032 3033 3033 3033 3033 3034 3034 3034 3034 3034 3033 3034 3034 3033 3033 3033 3033 3033 3032 3032 3031 3031 3030 3030 3029 3028 3027 3026 3025 3024 3024 3023 3022
2988 2989 2991 2992 2991 2992 2993 2993 2992 2990 2985 2984 2987 2990 2993 2996 2998 3000 3000 2999 2999 3004 3007 3009 3010 3011 3013 3014 3015 3017 3017 3016 3015 3017 3020 3020 3020 3020 3021 3021 3022 3023 3023 3024 3024 3025 3025 3025 3026 3026 3026 3027 3027 3027 3028 3028 3028 3029 3029 3029 3029 3029 3028 3029 3029 3029 3028 3028 3028 3028 3028 3027 3027 3026 3026 3025 3025 3024 3023 3022 3022 3021 3020 3019 3018 3017
2983 2985 2986 2987 2987 2987 2988 2987 2986 2985 2983 2985 2987 2988 2991 2994 2995 2998 2998 2995 2995 3000 3004 3005 3006 3007 3008 3009 3010 3011 3011 3011 3012 3014 3015 3015 3015 3016 3016 3017 3018 3018 3019 3020 3020 3020 3021 3021 3021 3021 3022 3022 3022 3023 3023 3023 3024 3024 3024 3024 3023 3023 3023 3024 3024 3023 3023 3023 3022 3022 3022 3022 3021 3021 3021 3021 3020 3019 3018 3017 3017 3016 3015 3015 3013 3013
2979 2980 2981 2982 2983 2984 2985 2984 2983 2982 2982 2983 2985 2987 2990 2992 2992 2993 2992 2991 2993 2997 2999 3000 3002 3002 3003 3004 3005 3005 3006 3008 3009 3009 3010 3010 3011 3011 3012 3013 3014 3014 3014 3015 3015 3016 3016 3016 3017 3017 3017 3017 3018 3018 3019 3019 3019 3019 3019 3018 3018 3018 3019 3019 3018 3018 3017 3017 3017 3017 3017 3017 3016 3016 3016 3016 3015 3014 3013 3013 3012 3012 3011 3010 3009 3008
2973 2975 2977 2978 2979 2980 2981 2981 2981 2980 2978 2980 2983 2985 2987 2988 2988 2988 2988 2990 2993 2994 2994 2996 2997 2998 2999 3000 3001 3002 3003 3003 3004 3004 3006 3006 3007 3008 3009 3009 3009 3009 3010 3010 3011 3011 3012 3012 3012 3013 3013 3013 3013 3014 3014 3014 3014 3014 3014 3013 3014 3014 3014 3013 3013 3012 3012 3012 3012 3012 3012 3012 3012 3011 3011 3010 3010 3009 3009 3008 3007 3007 3006 3005 3004 3003
2969 2971 2972 2973 2974 2976 2978 2979 2978 2975 2974 2977 2981 2983 2983 2984 2984 2985 2988 2989 2990 2991 2991 2992 2993 2994 2996 2997 2998 2999 2999 2999 3000 3001 3002 3003 3004 3005 3005 3005 3005 3005 3006 3006 3007 3007 3007 3008 3008 3008 3008 3009 3009 3009 3009 3009 3009 3009 3009 3009 3010 3010 3009 3008 3008 3008 3007 3007 3007 3007 3007 3007 3007 3007 3006 3006 3005 3004 3004 3003 3002 3001 3001 2999 2999 2998
2967 2968 2968 2969 2971 2973 2973 2973 2973 2972 2973 2976 2979 2980 2981 2981 2981 2983 2985 2986 2987 2988 2989 2989 2990 2992 2993 2994 2995 2995 2995 2996 2997 2998 2999 3000 3000 3000 3001 3001 3001 3002 3002 3003 3003 3003 3004 3004 3004 3004 3004 3004 3004 3005 3005 3005 3004 3004 3005 3006 3006 3005 3004 3004 3004 3003 3003 3003 3003 3003 3003 3003 3002 3002 3001 3001 3000 2999 2999 2998 2997 2996 2995 2994 2993 2993
2964 2964 2965 2967 2968 2969 2969 2970 2971 2972 2973 2974 2976 2977 2978 2979 2979 2980 2982 2983 2984 2986 2987 2987 2988 2989 2989 2990 2991 2991 2992 2993 2993 2994 2995 2995 2996 2996 2997 2997 2998 2998 2999 2999 2999 2999 3000 3000 3000 3000 3000 3000 3000 3000 3000 3000 3000 3000 3001 3002 3001 3000 3000 3000 2999 2999 2999 2999 2999 2999 2998 2998 2997 2997 2996 2996 2995 2994 2994 2993 2992 2991 2990 2989 2988 2987
2962 2963 2964 2964 2965 2966 2966 2967 2968 2969 2970 2972 2973 2974 2975 2976 2977 2978 2979 2980 2981 2983 2984 2984 2985 2986 2986 2986 2986 2987 2989 2989 2989 2990 2990 2991 2992 2993 2993 2994 2994 2995 2995 2995 2995 2996 2995 2995 2995 2995 2995 2995 2996 2995 2996 2996 2996 2997 2998 2998 2996 2995 2996 2995 2995 2995 2995 2994 2994 2994 2993 2993 2992 2992 2991 2991 2990 2989 2989 2988 2987 2986 2985 2984 2983 2982
2959 2961 2961 2961 2962 2963 2963 2963 2964 2966 2968 2969 2970 2971 2972 2973 2974 2975 2976 2977 2979 2980 2981 2981 2982 2983 2983 2983 2983 2984 2985 2985 2986 2986 2987 2987 2988 2988 2989 2990 2990 2991 2991 2991 2991 2991 2991 2991 2991 2991 2991 2991 2991 2992 2992 2991 2992 2992 2993 2993 2992 2991 2991 2991 2991 2991 2990 2990 2989 2989 2988 2987 2987 2987 2986 2985 2985 2984 2984 2983 2982 2981 2980 2979 2978 2977
2957 2958 2958 2958 2959 2960 2960 2960 2961 2963 2965 2966 2967 2968 2969 2970 2971 2972 2973 2975 2975 2976 2977 2978 2979 2979 2979 2980 2981 2981 2981 2982 2982 2982 2983 2984 2984 2985 2985 2986 2986 2987 2987 2987 2986 2986 2986 2986 2986 2987 2987 2987 2987 2988 2987 2987 2987 2988 2988 2987 2987 2987 2986 2986 2986 2986 2985 2985 2984 2983 2983 2982 2981 2981 2980 2980 2979 2979 2978 2978 2977 2976 2975 2974 2973 2972
2954 2954 2954 2955 2955 2956 2957 2958 2959 2960 2962 2963 2964 2965 2965 2966 2967 2968 2970 2971 2972 2973 2973 2974 2975 2976 2976 2977 2978 2978 2978 2978 2978 2979 2979 2980 2980 2981 2981 2981 2982 2982 2982 2981 2981 2981 2981 2982 2982 2983 2983 2983 2984 2983 2983 2983 2983 2983 2983 2982 2982 2982 2981 2981 2981 2980 2980 2979 2978 2978 2977 2977 2976 2975 2975 2974 2973 2973 2972 2972 2971 2970 2970 2968 2967 2966
2949 2949 2950 2951 2952 2952 2953 2955 2957 2958 2959 2959 2961 2961 2962 2963 2964 2965 2966 2968 2969 2969 2970 2970 2971 2972 2973 2974 2975 2975 2975 2975 2975 2975 2975 2975 2976 2976 2976 2976 2976 2976 2976 2976 2976 2976 2977 2977 2978 2978 2979 2979 2979 2979 2979 2979 2979 2979 2978 2978 2977 2977 2976 2976 2975 2974 2974 2973 2973 2972 2972 2971 2970 2970 2969 2969 2968 2967 2967 2966 2966 2965 2964 2963 2961 2960
2945 2945 2947 2949 2950 2950 2951 2953 2955 2955 2955 2956 2957 2958 2959 2959 2961 2962 2963 2964 2965 2966 2966 2967 2968 2969 2970 2970 2971 2971 2971 2971 2971 2970 2970 2971 2971 2971 2971 2971 2971 2971 2972 2972 2972 2972 2972 2973 2973 2974 2974 2975 2975 2974 2974 2974 2974 2974 2973 2972 2972 2971 2970 2970 2969 2969 2968 2968 2967 2967 2966 2965 2965 2964 2964 2963 2963 2962 2961 2960 2960 2959 2958 2957 2955 2954